SCP
0 0 0 0 0 0 0 0 0 0 0 0 0 0 0 0 0 0 0 0 0 0 0 0 0 0 0 0 0 0 0 0 0 0 0 0 0 0 0 0 0 0 0
0 0 0 0 0 0 0 0 0 0 0 0 0 0 0 0 0 0 0 0 0 0 0 0 0 0 0 0 0 0 0 0 0 0 0 0 0 0 0 0 0 0 0
0 0 0 0 0 0 0 0 0 0 0 0 0 0 0 0 0 0 0 0 0 0 0 0 0 0 0 0 0 0 0 0 0 0 0 0 0 0 0 0 0 0 0
0 0 0 0 0 0 0 0 0 0 0 0 0 0 0 0 0 0 0 0 0 0 0 0 0 0 0 0 0 0 0 0 0 0 0 0 0 0 0 0 0 0 0
0 0 0 0 0 0 0 0 0 0 0 0 0 0 0 0 0 0 0 0 0 0 0 0 0 0 0 0 0 0 0 0 0 0 0 0 0 0 0 0 0 0 0
0 0 0 0 0 0 0 0 0 0 0 0 0 0 0 0 0 0 0 0 0 0 0 0 0 0 0 0 0 0 0 0 0 0 0 0 0 0 0 0 0 0 0
-0 0 0 0 0 0 0 0 0 0 0 0 0 0 0 0 0 0 0 0 0 0 0 0 0 0 0 0 0 0 0 0 0 0 0 0 0 0 0 0 0 0 0
-0 0 0 0 0 0 0 0 0 0 0 0 0 0 0 0 0 0 0 0 0 0 0 0 0 0 0 0 0 0 0 0 0 0 0 0 0 0 0 0 0 0 0
0 0 0 0 0 0 0 0 0 0 0 0 0 0 0 0 0 0 0 0 0 0 0 0 0 0 0 0 0 0 0 0 0 0 0 0 0 0 0 0 0 0 0
0 0 0 0 0 0 0 0 0 0 0 0 0 0 0 0 0 0 0 0 0 0 0 0 0 0 0 0 0 0 0 0 0 0 0 0 0 0 0 0 0 0 0
0 0 0 0 0 0 0 0 0 0 0 0 0 0 0 0 0 0 0 0 0 0 0 0 0 0 0 0 0 0 0 0 0 0 0 0 0 0 0 0 0 0 0
0 0 0 0 0 0 0 0 0 0 0 0 0 0 0 0 0 0 0 0 0 0 0 0 0 0 0 0 0 0 0 0 0 0 0 0 0 0 0 0 0 0 0
0 0 0 0 0 0 0 0 0 0 0 0 0 0 0 0 0 0 0 0 0 0 0 0 0 0 0 0 0 0 0 0 0 0 0 0 0 0 0 0 0 0 0
0 0 0 0 0 0 0 0 0 0 0 0 0 0 0 0 0 0 0 0 0 0 0 0 0 0 0 0 0 0 0 0 0 0 0 0 0 0 0 0 0 0 0
0 0 0 0 0 0 0 0 0 0 0 0 0 0 0 0 0 0 0 0 0 0 0 0 0 0 0 0 0 0 0 0 0 0 0 0 0 0 0 0 0 0 0
0 0 0 0 0 0 0 0 0 0 0 0 0 0 0 0 0 0 0 0 0 0 0 0 0 0 0 0 0 0 0 0 0 0 0 0 0 0 0 0 0 0 0
0 0 0 0 0 0 0 0 0 0 0 0 0 0 0 0 0 0 0 0 0 0 0 0 0 0 0 0 0 0 0 0 0 0 0 0 0 0 0 0 0 0 0
0 0 0 0 0 0 0 0 0 0 0 0 0 0 0 0 0 0 0 0 0 0 0 0 0 0 0 0 0 0 0 0 0 0 0 0 0 0 0 0 0 0 0
0 0 0 0 0 0 0 0 0 0 0 0 0 0 0 0 0 0 0 0 0 0 0 0 0 0 0 0 0 0 0 0 0 0 0 0 0 0 0 0 0 0 0
0 0 0 0 0 0 0 0 0 0 0 0 0 0 0 0 0 0 0 0 0 0 0 0 0 0 0 0 0 0 0 0 0 0 0 0 0 0 0 0 0 0 0
0 0 0 0 0 0 0 0 0 0 0 0 0 0 0 0 0 0 0 0 0 0 0 0 0 0 0 0 0 0 0 0 0 0 0 0 0 0 0 0 0 0 0
0 0 0 0 0 0 0 0 0 0 0 0 0 0 0 0 0 0 0 0 0 0 0 0 0 0 0 0 0 0 0 0 0 0 0 0 0 0 0 0 0 0 0
0 0 0 0 0 0 0 0 0 0 0 0 0 0 0 0 0 0 0 0 0 0 0 0 0 0 0 0 0 0 0 0 0 0 0 0 0 0 0 0 0 0 0
0 0 0 0 0 0 0 0 0 0 0 0 0 0 0 0 0 0 0 0 0 0 0 0 0 0 0 0 0 0 0 0 0 0 0 0 0 0 0 0 0 0 0
0 0 0 0 0 0 0 0 0 0 0 0 0 0 0 0 0 0 0 0 0 0 0 0 0 0 0 0 0 0 0 0 0 0 0 0 0 0 0 0 0 0 0
0 0 0 0 0 0 0 0 0 0 0 0 0 0 0 0 0 0 0 0 0 0 0 0 0 0 0 0 0 0 0 0 0 0 0 0 0 0 0 0 0 0 0
Wind_Speed
2 2 1 1 2 2 1 2 2 2 2 2 2 2 2 2 2 2 1 4 5 6 6 6 6 6 6 5 5 5 5 5 6 6 6 6 7 7 8 8 9 10 10
2 2 2 2 2 2 2 2 2 2 2 2 2 2 2 2 2 2 2 2 4 6 7 7 7 6 6 6 6 6 6 6 6 6 6 6 7 7 8 8 8 9 10
3 2 2 2 2 2 2 2 2 1 1 1 2 2 2 2 2 2 2 2 2 5 7 8 8 7 7 7 7 7 7 7 7 7 7 7 7 7 8 9 9 9 10
3 2 2 3 3 2 2 2 2 1 1 2 2 2 1 1 2 2 2 2 3 2 4 8 9 9 9 9 8 8 8 8 7 7 7 7 7 7 8 8 8 9 9
3 2 2 3 3 2 2 2 2 2 2 2 2 1 1 1 1 1 2 3 4 4 3 5 6 8 10 10 10 10 9 9 9 8 8 7 7 7 8 8 8 8 9
3 3 2 3 3 2 2 2 2 2 2 2 2 1 1 1 1 1 1 2 3 4 4 4 3 4 7 9 11 11 11 11 10 9 9 8 8 8 8 8 9 9 9
3 3 2 2 3 2 3 3 3 2 2 2 2 1 1 1 1 1 1 1 3 4 4 4 4 4 3 6 9 11 12 12 11 10 9 9 9 9 9 9 9 9 9
3 3 3 2 2 2 2 3 3 2 1 2 2 2 2 3 2 0 0 1 2 3 3 4 4 4 4 4 6 10 12 13 12 11 10 10 9 9 9 9 9 10 10
3 3 3 3 2 2 2 2 3 2 2 1 2 3 3 2 1 2 1 1 2 2 3 3 4 4 5 4 5 8 12 13 12 12 11 10 10 10 9 10 10 9 9
2 2 2 2 2 2 2 2 2 2 2 2 1 2 3 3 3 2 2 1 2 2 3 2 3 3 5 4 5 9 12 12 12 12 12 11 11 10 10 10 10 10 10
1 1 1 1 1 1 2 2 2 2 1 2 2 2 2 3 4 4 3 2 2 2 2 2 2 3 4 4 4 8 11 12 12 12 12 11 11 11 11 11 11 10 10
1 1 1 1 1 1 1 2 2 2 1 2 1 2 2 2 2 3 4 4 4 2 2 2 2 2 3 4 5 9 10 11 12 12 12 11 11 11 11 11 11 11 11
1 1 2 2 1 1 2 2 2 2 2 2 2 1 2 2 3 3 5 4 5 3 2 2 1 2 3 4 4 9 8 10 11 12 12 11 11 10 11 11 11 11 11
2 2 3 3 2 2 2 2 2 2 2 2 2 2 2 2 2 3 3 4 4 4 3 3 1 2 3 4 5 8 6 9 11 11 11 11 10 10 10 10 11 11 12
3 3 3 3 3 3 3 3 3 2 2 3 3 3 3 2 2 2 3 3 4 4 4 2 2 2 3 4 5 6 6 8 10 10 10 9 9 9 10 10 11 12 12
4 4 4 4 4 3 4 4 3 3 3 3 2 3 3 2 2 2 2 3 4 5 5 3 3 4 5 5 6 7 6 9 8 9 9 8 8 9 9 10 11 11 12
5 5 5 5 5 4 4 4 4 4 4 4 3 4 4 3 3 2 3 3 4 4 6 5 4 5 6 6 5 6 6 6 5 7 8 8 8 9 9 10 10 11 11
5 5 5 5 5 5 5 5 5 5 5 5 5 5 4 3 4 3 3 4 4 4 5 7 6 5 6 6 6 7 5 5 5 7 8 8 8 8 9 10 10 11 11
5 5 6 6 6 6 6 6 6 6 6 6 6 6 5 5 5 4 4 4 4 4 5 6 6 5 5 4 6 6 6 5 5 5 7 7 8 8 9 9 10 10 10
5 6 6 6 6 6 6 6 6 6 6 6 6 6 6 6 6 6 5 5 4 5 5 5 5 5 4 4 5 5 6 5 5 4 5 6 7 8 8 8 9 10 10
5 5 6 6 6 6 6 6 6 7 7 7 6 7 7 7 7 6 5 5 5 5 4 5 5 5 4 4 4 4 6 6 6 3 5 5 5 5 5 6 7 8 10
5 5 6 6 6 5 7 9 8 7 7 7 7 7 6 7 9 10 10 8 7 6 6 5 5 6 6 5 5 5 5 6 5 3 6 6 4 5 4 4 7 10 10
5 5 6 6 6 6 8 9 10 7 7 7 7 7 5 5 8 7 8 10 9 10 9 7 7 7 6 5 6 6 6 6 6 6 6 6 4 5 4 5 9 10 10
5 5 5 6 6 6 8 9 9 8 7 7 7 7 7 7 6 7 7 7 7 7 7 7 7 7 6 5 5 6 7 7 7 4 4 5 5 5 6 5 6 8 10
5 5 5 6 7 7 8 8 8 6 6 7 7 7 8 8 8 9 8 8 7 6 6 7 7 7 7 7 5 4 4 5 5 4 2 4 5 6 6 5 4 7 10
5 5 5 6 6 7 7 8 8 5 6 6 6 7 9 10 9 10 9 8 8 6 5 5 6 6 6 5 6 5 4 4 4 4 1 3 4 5 5 4 4 5 7
Wind_Direction
50 38 37 38 25 12 1 346 333 335 317 319 318 316 315 310 312 316 23 50 17 4 354 349 340 333 329 323 328 329 325 314 300 282 272 268 268 267 269 272 274 276 274
44 36 35 26 20 6 356 343 351 332 327 328 329 328 325 322 323 330 341 65 54 24 13 7 1 355 349 344 342 339 338 332 323 315 301 289 280 276 275 278 280 281 281
38 32 26 24 16 360 352 349 359 337 339 334 332 339 336 333 334 348 360 357 43 49 30 18 12 8 2 356 352 347 346 342 332 320 310 303 296 285 279 278 278 279 282
31 32 28 27 10 358 356 354 346 338 339 334 331 337 335 338 345 14 32 32 22 21 43 34 23 18 12 6 358 352 349 347 343 335 324 313 306 300 293 288 284 282 283
29 35 29 23 13 7 7 356 345 337 337 337 328 331 333 342 16 32 49 45 37 26 23 46 36 27 18 12 5 359 355 351 346 341 338 330 321 313 306 302 299 294 291
29 33 37 25 17 17 12 358 347 344 336 331 309 313 338 2 37 40 43 51 41 29 18 11 9 23 23 13 6 359 354 350 345 341 338 336 331 326 319 314 310 307 302
28 32 30 32 22 20 9 358 347 339 348 334 278 254 210 184 140 64 44 31 35 23 12 7 3 355 1 11 10 1 354 349 345 342 340 337 333 329 324 320 317 315 312
26 28 17 21 21 8 10 4 354 334 346 355 315 283 255 199 167 115 25 20 13 8 6 6 4 3 356 354 8 3 355 348 344 342 341 340 340 336 334 333 326 322 319
26 25 22 10 10 358 359 1 353 340 331 347 344 310 294 288 311 200 210 329 354 350 352 357 0 3 358 354 353 2 355 347 343 341 339 341 342 340 337 335 334 331 329
23 17 14 6 360 351 352 351 346 327 311 304 299 311 305 312 286 275 209 218 312 323 335 340 348 358 355 350 354 359 353 345 342 340 339 338 337 337 336 333 330 329 326
8 360 348 336 338 343 339 327 319 318 301 295 295 289 273 273 269 275 278 281 288 293 320 318 330 342 347 344 343 356 348 343 340 338 337 336 338 337 335 334 332 330 330
249 258 277 288 295 307 315 311 302 293 284 278 273 275 283 278 280 277 281 292 293 288 287 291 308 330 341 337 347 352 343 342 338 335 333 335 340 339 335 333 333 333 332
244 246 253 259 269 276 280 283 285 286 274 267 264 265 275 286 297 289 284 290 290 288 257 250 273 313 332 330 336 342 333 339 336 333 332 335 337 337 337 335 334 333 331
255 253 249 252 255 258 257 254 258 265 270 262 255 249 251 260 274 279 286 294 290 276 253 249 247 280 314 317 335 322 322 333 332 331 332 335 336 335 335 335 333 331 329
251 244 243 246 248 250 253 252 248 244 252 258 258 246 247 253 260 271 276 279 284 288 283 266 262 282 313 313 327 315 315 326 325 328 330 332 332 331 334 334 331 329 326
246 244 239 240 241 240 241 244 248 246 248 251 256 256 250 249 249 257 265 269 267 275 279 290 293 311 318 310 315 309 312 314 312 322 326 327 330 330 330 329 328 325 322
242 242 240 238 237 237 237 238 242 244 246 249 246 249 251 253 252 249 251 256 259 264 272 285 289 301 304 306 309 310 310 310 310 318 323 323 326 325 326 327 326 325 324
241 239 238 238 237 236 236 239 242 242 244 246 247 247 249 246 248 250 247 250 257 260 270 282 290 296 299 306 310 312 313 311 307 315 319 319 320 323 324 326 326 325 325
242 238 235 238 239 238 237 239 242 243 243 247 248 247 247 245 247 245 246 251 256 260 262 273 285 294 296 303 310 308 309 310 309 311 313 313 316 319 321 324 327 326 325
242 242 240 241 242 241 239 239 239 242 243 244 245 245 246 245 249 251 249 251 254 257 259 266 275 284 289 301 305 310 313 316 311 312 312 310 311 314 315 319 324 325 325
242 243 244 242 241 240 238 237 237 240 244 245 244 244 245 246 251 253 254 254 253 255 258 264 272 280 285 299 305 312 307 312 307 309 314 308 309 307 308 311 319 326 324
245 243 244 245 243 241 240 240 243 243 244 247 249 247 244 240 240 242 246 252 257 260 262 263 269 273 285 294 301 301 306 311 307 329 316 303 298 299 305 310 324 325 323
249 248 249 250 250 249 245 245 242 248 247 246 247 247 243 240 239 242 240 241 244 247 254 264 269 274 284 292 295 293 292 295 294 314 311 295 304 302 310 310 314 317 319
249 249 250 252 256 254 248 248 246 245 247 247 245 245 247 246 237 237 242 245 248 249 248 251 261 273 282 285 278 283 292 294 289 285 297 290 307 308 311 303 310 313 317
252 250 252 252 254 256 247 248 247 247 247 249 247 245 244 247 241 234 240 245 249 252 245 247 261 270 276 277 278 278 281 289 293 297 310 292 305 310 301 291 297 308 311
255 256 254 254 253 258 253 248 245 249 252 253 250 245 241 245 245 236 238 242 247 250 247 245 247 249 254 257 259 263 273 278 287 292 316 304 305 321 306 291 303 308 306